EHI
83 83 80 80 84 89 90 86 80 72 59 49 44 42 40 33 25 28 34 29 18 12 11 14 16 14 12 13 12 9 7 6 4 2 0 0 2 4 5 4 3 2 1
89 86 84 84 87 91 93 90 86 76 63 53 46 41 38 32 28 33 38 31 21 14 12 15 15 14 14 14 14 11 8 6 4 3 1 1 2 3 3 5 5 3 2
95 93 91 89 88 92 94 93 91 81 69 61 51 44 41 34 33 41 43 34 24 18 15 15 14 13 13 14 14 12 8 6 5 4 2 1 1 1 1 3 4 4 4
99 98 96 93 90 90 93 94 94 86 77 68 60 52 45 36 36 44 46 38 29 22 19 18 17 14 12 13 13 11 8 6 5 2 1 1 1 0 0 1 2 3 4
97 98 98 95 92 91 92 95 95 91 83 74 67 60 50 41 42 47 49 44 35 28 24 25 26 20 14 14 15 14 10 7 5 3 2 2 1 0 0 0 0 2 3
88 94 98 96 93 92 93 95 95 92 86 77 69 62 56 53 54 55 54 48 39 31 27 30 34 29 20 19 22 20 15 12 10 7 5 3 1 0 0 0 0 1 2
77 88 96 95 93 94 95 95 95 93 89 81 71 64 61 61 61 60 56 48 38 32 32 37 42 38 29 27 29 25 20 18 17 12 8 5 3 4 4 2 0 1 2
67 81 93 95 94 94 95 96 95 94 91 85 76 69 64 60 60 60 54 46 38 36 42 49 51 47 38 34 36 32 25 24 21 15 11 7 5 7 8 6 2 0 1
54 71 87 93 94 95 95 95 94 94 92 87 81 74 67 61 60 60 54 47 41 41 50 58 57 51 45 42 41 36 30 28 24 18 13 8 5 6 9 7 4 2 1
45 61 80 89 93 94 94 93 92 92 91 86 79 73 68 64 61 60 56 52 46 44 50 58 58 53 48 46 43 36 32 29 24 18 14 10 6 5 6 5 5 3 2
43 56 72 82 86 88 88 89 89 89 88 82 74 69 67 65 62 60 60 57 51 48 50 56 56 50 48 47 40 32 29 27 21 16 14 12 9 8 6 5 4 3 2
41 54 69 76 80 81 82 84 84 84 83 77 71 68 66 67 65 62 63 62 57 52 53 55 51 44 43 44 39 28 23 23 20 16 15 14 12 11 9 6 5 3 1
43 55 68 75 78 80 82 81 79 80 79 75 71 68 67 68 68 66 66 65 60 55 54 53 45 39 38 39 36 26 20 19 19 17 16 15 14 12 10 8 5 3 2
46 55 68 75 77 80 83 82 79 80 79 76 73 70 68 69 69 68 68 66 61 56 55 51 43 37 35 34 31 25 20 18 17 16 15 14 12 11 8 6 5 4 3
42 50 63 71 73 76 80 80 79 80 80 77 73 71 69 68 66 66 65 63 58 54 54 52 43 36 30 25 23 21 20 17 15 14 13 11 8 6 4 3 4 3 3
35 43 55 64 67 68 70 72 73 75 75 71 68 67 67 64 60 58 59 59 55 53 54 52 44 33 23 15 12 14 17 16 13 11 10 7 4 2 1 1 1 1 2
30 37 47 56 60 59 59 62 64 66 64 59 57 61 63 60 55 53 54 55 54 52 52 49 41 30 18 8 4 7 13 14 13 11 10 6 3 1 1 1 0 0 1
28 32 41 50 55 55 54 54 55 57 54 48 49 56 60 59 55 53 55 55 53 51 47 41 36 28 15 5 1 3 9 13 13 12 10 8 4 2 2 2 1 1 1
30 32 38 48 53 53 52 51 49 48 45 42 46 52 55 56 55 54 54 52 50 47 39 32 29 25 15 5 1 2 7 10 10 10 8 7 4 1 1 1 2 2 2
35 35 40 50 54 53 51 50 47 43 39 38 42 45 46 48 49 49 49 48 43 37 31 26 25 25 20 8 1 2 5 6 6 6 5 3 2 0 0 1 2 3 3
38 37 43 51 54 52 50 48 44 40 37 36 37 40 40 40 41 43 43 42 35 28 25 24 25 27 22 11 2 1 3 4 5 6 4 2 0 0 0 0 1 2 2
37 38 42 49 52 50 47 45 43 40 36 34 35 37 37 36 36 37 36 33 30 26 24 23 22 22 18 10 3 0 1 2 5 5 3 1 0 0 0 0 0 1 1
34 36 41 46 49 48 46 44 41 39 36 32 31 31 32 33 34 32 27 25 24 24 24 22 19 16 14 10 4 1 0 1 2 2 1 0 0 0 0 0 0 0 0
32 35 39 43 45 46 44 41 38 36 34 29 25 25 28 31 31 27 21 18 17 19 20 20 17 14 13 11 6 2 0 0 0 0 0 0 0 0 0 0 0 0 0
31 33 36 37 39 41 40 35 33 33 31 26 22 21 23 26 26 22 16 11 10 11 14 15 12 9 8 7 5 3 1 0 0 0 0 0 0 0 0 0 0 0 0
31 32 32 32 35 37 36 31 29 29 29 26 22 18 19 22 22 17 12 7 6 6 8 9 7 4 3 2 2 2 2 1 0 0 0 0 0 0 0 0 0 0 0
Wind_Speed
18 17 17 16 15 14 14 12 12 11 8 7 6 5 5 4 3 4 6 5 4 5 3 2 4 2 2 3 4 3 3 2 1 1 1 1 2 2 2 2 2 3 4
17 18 17 16 16 15 14 12 11 12 9 6 5 4 5 4 4 3 5 5 5 5 5 3 3 3 3 3 3 2 2 2 2 1 1 1 0 1 2 2 3 3 3
20 19 18 16 17 16 16 13 12 12 10 9 6 5 4 3 4 4 4 5 5 4 3 5 3 3 3 3 3 3 3 2 2 1 1 1 1 1 0 2 2 2 2
20 19 19 17 17 17 16 13 12 12 10 9 8 9 7 6 5 5 5 5 5 5 5 5 4 3 2 4 4 5 3 2 2 1 1 1 2 1 1 1 2 3 3
21 21 20 18 17 17 16 14 13 12 11 10 9 8 7 6 4 5 6 6 5 5 6 5 4 4 3 4 4 3 3 2 2 2 2 2 1 2 2 2 2 2 3
20 21 19 17 16 16 16 15 13 12 12 11 10 9 8 7 7 7 7 6 5 5 6 6 5 5 4 4 4 3 4 2 2 1 1 1 2 2 2 2 3 3 3
17 19 20 19 17 17 16 15 15 14 13 12 11 10 8 8 7 7 7 6 5 6 7 7 6 5 4 4 4 4 4 4 3 2 2 1 2 1 1 1 2 2 2
15 18 19 19 18 18 16 16 16 14 14 13 11 9 9 7 6 7 6 7 6 6 7 7 6 6 6 6 5 4 5 4 4 4 3 2 2 1 1 1 1 1 1
14 16 18 18 17 16 16 16 15 14 14 13 11 10 10 9 8 8 7 6 5 5 7 8 7 7 6 5 5 4 4 4 5 4 4 3 2 2 1 1 1 1 1
11 12 15 16 17 15 14 15 15 14 13 13 12 11 10 9 7 7 8 6 6 5 6 8 7 7 6 6 5 5 4 5 4 3 3 3 2 2 2 2 1 1 1
10 12 13 14 15 16 15 14 14 14 13 13 12 10 11 10 9 7 7 7 6 6 6 7 7 7 7 6 6 6 6 6 6 5 5 5 3 1 2 2 1 1 1
8 9 11 12 12 14 15 14 14 14 13 12 11 11 10 10 10 9 8 7 7 6 7 7 7 7 7 7 7 7 7 7 7 6 5 6 5 3 2 1 1 1 1
6 8 9 9 10 10 12 13 13 13 12 12 12 11 11 10 10 9 9 8 7 7 7 7 7 7 7 7 7 6 6 6 6 6 6 5 4 4 3 2 1 1 1
6 7 7 7 6 7 8 10 11 11 11 11 11 11 10 10 10 9 9 9 9 9 8 8 8 8 7 7 7 7 6 5 5 5 5 5 5 4 4 3 3 2 2
6 7 7 6 6 6 7 8 8 9 9 9 9 9 8 8 9 9 8 9 9 10 8 8 7 8 7 8 8 7 8 6 5 5 4 4 5 4 3 3 2 2 2
6 7 7 7 6 5 6 6 6 7 7 8 8 8 8 8 8 8 8 8 8 8 8 8 8 9 9 10 11 8 7 6 6 5 5 5 6 6 7 5 3 2 2
5 5 6 6 5 5 5 5 5 5 6 7 7 7 8 8 8 9 8 8 8 8 8 8 8 8 8 11 12 11 6 6 6 6 5 6 7 9 7 7 6 5 5
4 4 4 6 5 5 5 4 5 5 6 6 7 7 7 8 7 7 7 7 7 7 7 8 8 8 9 12 12 11 7 5 5 6 6 6 4 6 6 6 6 6 5
4 4 4 6 5 5 5 5 5 5 5 5 4 5 5 5 6 7 7 6 6 7 7 7 8 8 8 11 12 11 6 5 6 6 6 6 6 5 6 5 5 5 4
4 4 4 5 5 5 5 5 5 5 4 4 3 2 2 3 4 4 4 5 5 7 7 7 7 8 7 11 13 12 6 6 5 5 4 6 6 6 7 6 5 5 4
4 4 5 6 5 5 5 4 3 3 3 2 2 2 3 3 3 3 3 4 5 5 6 6 6 7 8 10 13 12 6 6 6 5 5 4 7 7 8 7 5 5 3
6 5 6 6 5 4 4 3 2 1 1 1 2 2 2 3 3 3 3 4 4 5 5 5 5 5 6 9 11 14 11 7 5 4 4 4 9 10 9 7 6 5 4
5 5 6 7 5 4 3 2 2 1 1 1 1 2 2 2 2 3 3 3 4 5 5 5 5 5 4 6 10 12 12 8 5 3 3 4 7 8 7 8 7 5 4
5 5 6 6 5 4 4 3 3 2 1 1 1 1 2 2 2 1 2 2 3 4 4 4 4 4 4 4 4 5 6 7 5 4 3 4 5 5 4 4 4 4 4
5 5 5 5 4 4 4 3 3 2 1 0 1 1 1 2 2 2 1 0 0 1 2 3 3 3 3 3 5 5 5 4 4 4 2 2 3 3 3 3 3 3 3
5 5 5 4 4 4 4 3 3 2 1 1 1 0 1 1 1 2 2 7 5 6 5 3 2 2 3 5 6 6 6 6 6 4 3 3 3 3 3 3 3 2 2
Wind_Direction
173 169 171 170 166 161 164 168 167 163 166 167 172 169 164 164 163 159 150 158 169 169 192 156 151 180 156 151 156 149 162 181 158 123 118 166 166 171 168 168 158 172 169
173 171 173 173 170 167 168 169 170 167 175 169 172 169 160 172 168 156 147 168 178 176 187 154 172 174 152 156 158 156 170 189 168 152 129 144 241 226 179 162 175 178 166
177 173 176 177 175 173 174 176 175 171 179 166 171 167 152 172 164 158 161 181 178 184 203 163 183 167 167 169 177 181 189 194 188 178 155 161 183 178 202 194 167 162 173
177 175 179 180 180 177 176 175 174 172 178 171 180 176 176 185 181 171 166 179 184 184 193 177 183 176 185 168 192 188 195 183 197 189 192 171 135 153 168 240 184 185 184
178 177 181 181 182 179 177 177 174 175 178 183 186 183 184 188 172 168 164 174 184 193 193 187 178 179 201 180 194 160 192 191 205 196 186 183 175 211 177 189 196 201 189
179 176 178 177 182 181 178 178 176 178 179 186 189 191 190 184 178 175 170 181 184 196 198 190 178 186 200 183 183 174 194 208 212 206 204 182 193 211 188 189 195 203 204
178 173 175 177 181 182 179 177 176 180 182 187 191 190 193 189 185 181 183 187 190 194 195 193 180 186 194 188 183 185 200 201 200 208 232 238 229 224 198 195 203 201 199
179 174 175 176 180 183 179 176 177 181 183 187 191 188 188 193 192 192 191 194 201 194 179 182 179 187 192 196 186 193 198 196 202 213 212 243 248 241 218 208 186 204 216
181 174 172 176 178 182 180 179 178 181 184 187 188 189 191 199 194 186 201 200 192 190 171 178 183 189 194 193 182 203 203 182 197 208 202 216 234 224 231 246 200 191 223
177 172 174 175 177 179 177 177 179 182 184 187 191 192 194 199 197 194 198 196 192 192 175 179 184 190 192 191 194 200 194 190 199 208 197 206 233 221 222 229 225 219 212
176 171 171 171 175 177 177 180 180 181 185 190 193 193 191 195 196 202 197 191 194 187 189 183 189 193 192 191 198 206 192 194 200 209 199 204 219 227 241 221 217 224 227
168 165 163 163 171 177 177 179 181 183 186 189 191 193 191 191 196 200 198 192 192 193 192 188 192 197 196 194 199 211 198 193 196 201 203 202 199 198 244 257 246 226 207
143 147 148 159 166 172 172 178 180 182 185 186 190 193 195 195 198 198 194 193 193 197 195 192 195 201 197 195 201 206 205 198 196 194 197 199 193 195 204 222 252 269 251
135 136 136 145 152 160 161 172 178 178 180 185 190 194 198 197 199 198 195 194 195 199 197 195 196 198 198 197 201 202 205 203 197 195 192 191 192 197 198 216 221 239 265
127 135 137 139 148 155 160 166 172 173 177 184 190 192 195 197 197 198 200 198 199 202 197 198 198 197 199 202 199 200 201 197 198 195 190 191 182 182 189 213 203 225 237
133 138 138 142 149 154 163 167 168 169 174 185 193 190 194 199 200 199 199 199 201 202 198 199 200 202 207 194 190 194 197 190 193 194 197 195 188 183 180 180 170 187 231
127 130 139 142 146 155 155 166 169 170 179 191 196 193 195 199 202 204 199 200 203 203 203 201 200 201 202 188 182 189 195 193 192 194 198 218 210 193 192 194 200 208 216
125 122 128 135 148 152 149 155 159 171 184 193 200 198 198 198 197 201 201 202 199 200 204 205 203 201 200 186 184 186 199 204 199 199 200 212 220 205 192 200 206 212 214
105 109 123 132 132 139 146 152 158 165 175 187 195 197 197 199 198 201 203 203 201 203 206 203 202 200 191 185 181 178 195 206 213 216 212 209 211 205 192 202 211 211 219
76 98 105 108 111 116 132 146 155 163 177 192 193 190 191 193 202 205 206 204 205 208 206 205 201 196 186 184 182 181 198 206 212 214 213 211 207 195 190 202 213 225 230
64 80 90 93 99 107 119 137 152 165 175 194 194 187 197 193 203 200 201 203 209 209 206 202 198 193 186 182 183 186 201 209 212 212 208 202 192 193 198 206 216 221 232
66 75 82 81 82 92 106 119 113 114 143 180 192 191 198 206 203 193 195 204 204 205 204 200 202 199 184 183 190 194 206 216 221 216 207 193 187 189 195 205 216 219 232
60 68 88 85 77 71 75 81 66 69 97 162 192 198 194 193 188 194 200 203 206 207 203 202 206 199 187 180 183 193 204 216 219 219 199 185 181 186 197 210 214 217 226
57 65 83 87 78 67 61 49 43 50 95 173 195 190 177 171 163 173 207 219 225 216 203 202 203 195 177 172 177 185 194 201 212 218 204 186 185 194 204 196 208 217 229
56 58 68 75 73 62 51 46 43 54 62 149 176 176 167 151 119 104 48 249 334 254 211 207 193 190 187 190 174 179 188 195 193 181 189 192 177 186 204 206 205 208 214
60 60 63 69 67 59 47 34 35 49 70 71 54 79 149 145 153 134 78 48 55 58 60 72 105 101 123 127 140 150 155 164 170 170 188 198 204 208 208 212 221 218 221